Time,TemperatureF,DewpointF,PressureIn,WindDirection,WindDirectionDegrees,WindSpeedMPH,WindSpeedGustMPH,Humidity,HourlyPrecipIn,Conditions,Clouds,dailyrainin,SoftwareType,DateUTC
2013-04-09 00:00:00,11.0,7.0,-100.00,ENE,75,7.0,11.0,86,0.01,,,0.50,,2013-04-09 06:00:00,
2013-04-09 00:42:00,11.0,7.0,-100.00,ENE,75,7.0,11.0,86,0.01,,,0.50,,2013-04-09 06:42:00,
2013-04-09 00:52:00,11.0,7.0,-100.00,ENE,75,7.0,11.0,86,0.01,,,0.50,,2013-04-09 06:52:00,
2013-04-09 01:00:00,10.0,6.0,-100.00,NE,48,2.0,3.0,85,0.02,,,0.52,,2013-04-09 07:00:00,
2013-04-09 01:42:00,10.0,6.0,-100.00,NE,48,2.0,3.0,85,0.02,,,0.52,,2013-04-09 07:42:00,
2013-04-09 01:52:00,10.0,6.0,-100.00,NE,48,2.0,3.0,85,0.02,,,0.52,,2013-04-09 07:52:00,
2013-04-09 02:00:00,9.0,6.0,-100.00,NNW,334,0.0,1.0,85,0.02,,,0.54,,2013-04-09 08:00:00,
2013-04-09 02:42:00,9.0,6.0,-100.00,NNW,334,0.0,1.0,85,0.02,,,0.54,,2013-04-09 08:42:00,
2013-04-09 02:52:00,9.0,6.0,-100.00,NNW,334,0.0,1.0,85,0.02,,,0.54,,2013-04-09 08:52:00,
2013-04-09 03:00:00,9.0,6.0,-100.00,ENE,70,4.0,5.0,85,0.01,,,0.55,,2013-04-09 09:00:00,
2013-04-09 03:43:00,9.0,6.0,-100.00,ENE,70,4.0,5.0,85,0.01,,,0.55,,2013-04-09 09:43:00,
2013-04-09 03:52:00,9.0,6.0,-100.00,ENE,70,4.0,5.0,85,0.01,,,0.55,,2013-04-09 09:52:00,
2013-04-09 04:00:00,9.0,5.0,-100.00,ENE,66,3.0,4.0,84,0.02,,,0.57,,2013-04-09 10:00:00,
2013-04-09 04:42:00,9.0,5.0,-100.00,ENE,66,3.0,4.0,84,0.02,,,0.57,,2013-04-09 10:42:00,
2013-04-09 04:53:00,9.0,5.0,-100.00,ENE,66,3.0,4.0,84,0.02,,,0.57,,2013-04-09 10:53:00,
2013-04-09 05:00:00,9.0,5.0,-100.00,ENE,67,3.0,3.0,84,0.01,,,0.58,,2013-04-09 11:00:00,
2013-04-09 05:42:00,9.0,5.0,-100.00,ENE,67,3.0,3.0,84,0.01,,,0.58,,2013-04-09 11:42:00,
2013-04-09 05:52:00,9.0,5.0,-100.00,ENE,67,3.0,3.0,84,0.01,,,0.58,,2013-04-09 11:52:00,
2013-04-09 06:00:00,8.0,4.0,-100.00,ENE,72,2.0,3.0,84,0.02,,,0.60,,2013-04-09 12:00:00,
2013-04-09 06:32:00,8.0,4.0,-100.00,ENE,72,2.0,3.0,84,0.02,,,0.60,,2013-04-09 12:32:00,
2013-04-09 06:42:00,8.0,4.0,-100.00,ENE,72,2.0,3.0,84,0.02,,,0.60,,2013-04-09 12:42:00,
2013-04-09 06:53:00,8.0,4.0,-100.00,ENE,72,2.0,3.0,84,0.02,,,0.60,,2013-04-09 12:53:00,
2013-04-09 07:00:00,8.0,4.0,-100.00,NE,42,3.0,3.0,84,0.01,,,0.61,,2013-04-09 13:00:00,
2013-04-09 07:42:00,8.0,4.0,-100.00,NE,42,3.0,3.0,84,0.01,,,0.61,,2013-04-09 13:42:00,
2013-04-09 07:53:00,8.0,4.0,-100.00,NE,42,3.0,3.0,84,0.01,,,0.61,,2013-04-09 13:53:00,
2013-04-09 08:00:00,9.0,5.0,-100.00,NE,54,2.0,2.0,84,0.03,,,0.64,,2013-04-09 14:00:00,
2013-04-09 08:42:00,9.0,5.0,-100.00,NE,54,2.0,2.0,84,0.03,,,0.64,,2013-04-09 14:42:00,
2013-04-09 08:52:00,9.0,5.0,-100.00,NE,54,2.0,2.0,84,0.03,,,0.64,,2013-04-09 14:52:00,
2013-04-09 09:00:00,9.0,6.0,-100.00,NE,47,3.0,4.0,84,0.19,,,0.83,,2013-04-09 15:00:00,
2013-04-09 09:43:00,9.0,6.0,-100.00,NE,47,3.0,4.0,84,0.19,,,0.83,,2013-04-09 15:43:00,
2013-04-09 09:53:00,9.0,6.0,-100.00,NE,47,3.0,4.0,84,0.19,,,0.83,,2013-04-09 15:53:00,
2013-04-09 11:00:00,10.0,6.0,-100.00,ENE,66,9.0,13.0,84,0.02,,,0.99,,2013-04-09 17:00:00,
2013-04-09 11:42:00,10.0,6.0,-100.00,ENE,66,9.0,13.0,84,0.02,,,0.99,,2013-04-09 17:42:00,
2013-04-09 11:53:00,10.0,6.0,-100.00,ENE,66,9.0,13.0,84,0.02,,,0.99,,2013-04-09 17:53:00,
2013-04-09 12:00:00,12.0,9.0,-100.00,East,88,5.0,8.0,86,0.01,,,-99.99,,2013-04-09 18:00:00,
2013-04-09 12:42:00,12.0,9.0,-100.00,East,88,5.0,8.0,86,0.01,,,-99.99,,2013-04-09 18:42:00,
2013-04-09 12:53:00,12.0,9.0,-100.00,East,88,5.0,8.0,86,0.01,,,-99.99,,2013-04-09 18:53:00,
2013-04-09 13:00:00,13.0,9.0,-100.00,ENE,68,9.0,10.0,86,0.00,,,0.99,,2013-04-09 19:00:00,
2013-04-09 13:52:00,13.0,9.0,-100.00,ENE,68,9.0,10.0,86,0.00,,,0.99,,2013-04-09 19:52:00,
2013-04-09 14:00:00,12.0,9.0,-100.00,East,94,6.0,8.0,86,0.00,,,0.97,,2013-04-09 20:00:00,
2013-04-09 14:42:00,12.0,9.0,-100.00,East,94,6.0,8.0,86,0.00,,,0.97,,2013-04-09 20:42:00,
2013-04-09 14:52:00,12.0,9.0,-100.00,East,94,6.0,8.0,86,0.00,,,0.97,,2013-04-09 20:52:00,
2013-04-09 15:00:00,12.0,9.0,-100.00,ENE,66,6.0,8.0,86,0.00,,,0.91,,2013-04-09 21:00:00,
2013-04-09 15:53:00,12.0,9.0,-100.00,ENE,66,6.0,8.0,86,0.00,,,0.91,,2013-04-09 21:53:00,
2013-04-09 16:00:00,13.0,10.0,-100.00,ENE,64,7.0,8.0,86,0.00,,,0.60,,2013-04-09 22:00:00,
2013-04-09 16:42:00,13.0,10.0,-100.00,ENE,64,7.0,8.0,86,0.00,,,0.60,,2013-04-09 22:42:00,
2013-04-09 16:53:00,13.0,10.0,-100.00,ENE,64,7.0,8.0,86,0.00,,,0.60,,2013-04-09 22:53:00,
2013-04-09 17:00:00,13.0,10.0,-100.00,East,90,3.0,6.0,87,0.00,,,0.59,,2013-04-09 23:00:00,
2013-04-09 17:32:00,13.0,10.0,-100.00,East,90,3.0,6.0,87,0.00,,,0.59,,2013-04-09 23:32:00,
2013-04-09 17:42:00,13.0,10.0,-100.00,East,90,3.0,6.0,87,0.00,,,0.59,,2013-04-09 23:42:00,
2013-04-09 17:53:00,13.0,10.0,-100.00,East,90,3.0,6.0,87,0.00,,,0.59,,2013-04-09 23:53:00,
2013-04-09 18:00:00,14.0,10.0,-100.00,ENE,69,4.0,5.0,87,0.00,,,0.58,,2013-04-10 00:00:00,
2013-04-09 18:42:00,14.0,10.0,-100.00,ENE,69,4.0,5.0,87,0.00,,,0.58,,2013-04-10 00:42:00,
2013-04-09 18:52:00,14.0,10.0,-100.00,ENE,69,4.0,5.0,87,0.00,,,0.58,,2013-04-10 00:52:00,
2013-04-09 19:00:00,13.0,10.0,-100.00,NE,47,3.0,5.0,87,0.00,,,0.57,,2013-04-10 01:00:00,
2013-04-09 19:42:00,13.0,10.0,-100.00,NE,47,3.0,5.0,87,0.00,,,0.57,,2013-04-10 01:42:00,
2013-04-09 19:53:00,13.0,10.0,-100.00,NE,47,3.0,5.0,87,0.00,,,0.57,,2013-04-10 01:53:00,
2013-04-09 20:00:00,13.0,10.0,-100.00,NNE,19,1.0,2.0,87,0.00,,,0.56,,2013-04-10 02:00:00,
2013-04-09 20:42:00,13.0,10.0,-100.00,NNE,19,1.0,2.0,87,0.00,,,0.56,,2013-04-10 02:42:00,
2013-04-09 20:52:00,13.0,10.0,-100.00,NNE,19,1.0,2.0,87,0.00,,,0.56,,2013-04-10 02:52:00,
2013-04-09 21:00:00,12.0,9.0,-100.00,North,356,1.0,2.0,86,0.00,,,0.55,,2013-04-10 03:00:00,
2013-04-09 21:43:00,12.0,9.0,-100.00,North,356,1.0,2.0,86,0.00,,,0.55,,2013-04-10 03:43:00,
2013-04-09 21:53:00,12.0,9.0,-100.00,North,356,1.0,2.0,86,0.00,,,0.55,,2013-04-10 03:53:00,
2013-04-09 22:00:00,12.0,9.0,-100.00,NNW,340,3.0,3.0,86,0.00,,,0.52,,2013-04-10 04:00:00,
2013-04-09 22:42:00,12.0,9.0,-100.00,NNW,340,3.0,3.0,86,0.00,,,0.52,,2013-04-10 04:42:00,
2013-04-09 22:53:00,12.0,9.0,-100.00,NNW,340,3.0,3.0,86,0.00,,,0.52,,2013-04-10 04:53:00,
2013-04-09 23:00:00,9.0,5.0,-100.00,WNW,291,5.0,6.0,84,0.00,,,0.52,,2013-04-10 05:00:00,
2013-04-09 23:42:00,9.0,5.0,-100.00,WNW,291,5.0,6.0,84,0.00,,,0.52,,2013-04-10 05:42:00,
2013-04-09 23:53:00,9.0,5.0,-100.00,WNW,291,5.0,6.0,84,0.00,,,0.52,,2013-04-10 05:53:00,